Radiation Dose at Monitoring Post of Fukushima Daini Nuclear Power Station
Date,Time,MP-1(microSv/h),MP-2(microSv/h),MP-3(microSv/h),MP-4(microSv/h),MP-5(microSv/h),MP-6(microSv/h),MP-7(microSv/h),Wind Direction,Wind Velocity(m/s),Rain
2024/06/18,00:00,0.151,0.134,0.217,0.203,0.207,0.118,0.076,south-southwest,4.1,No
2024/06/18,00:10,0.149,0.133,0.218,0.202,0.207,0.117,0.075,south-southwest,4.4,No
2024/06/18,00:20,0.148,0.132,0.218,0.200,0.210,0.117,0.076,south-southwest,4.8,No
2024/06/18,00:30,0.150,0.133,0.217,0.204,0.208,0.118,0.076,south-southwest,5.9,Yes
2024/06/18,00:40,0.150,0.133,0.218,0.203,0.207,0.117,0.077,south-southwest,6.1,Yes
2024/06/18,00:50,0.149,0.133,0.219,0.201,0.209,0.117,0.076,south,4.1,Yes
2024/06/18,01:00,0.151,0.134,0.217,0.203,0.209,0.118,0.077,south,5.4,Yes
2024/06/18,01:10,0.150,0.132,0.219,0.204,0.207,0.119,0.076,south,5.1,Yes
2024/06/18,01:20,0.149,0.133,0.220,0.202,0.209,0.118,0.077,south-southwest,4.8,Yes
2024/06/18,01:30,0.152,0.135,0.218,0.205,0.210,0.119,0.078,south-southwest,4.8,Yes
2024/06/18,01:40,0.151,0.135,0.221,0.204,0.208,0.119,0.077,south,4.7,Yes
2024/06/18,01:50,0.151,0.134,0.219,0.203,0.211,0.118,0.077,south,4.1,Yes
2024/06/18,02:00,0.152,0.133,0.218,0.205,0.210,0.119,0.077,south,5.5,Yes
2024/06/18,02:10,0.149,0.134,0.220,0.204,0.208,0.119,0.076,south,3.4,Yes
2024/06/18,02:20,0.151,0.134,0.218,0.204,0.211,0.118,0.077,south,4.6,Yes
2024/06/18,02:30,0.152,0.133,0.220,0.204,0.210,0.120,0.078,south-southwest,4.1,Yes
2024/06/18,02:40,0.150,0.134,0.219,0.203,0.209,0.118,0.077,south-southwest,5.6,Yes
2024/06/18,02:50,0.151,0.134,0.220,0.206,0.211,0.119,0.077,south-southwest,5.8,Yes
2024/06/18,03:00,0.152,0.134,0.220,0.205,0.208,0.118,0.078,south-southwest,4.4,Yes
2024/06/18,03:10,0.151,0.133,0.218,0.204,0.209,0.119,0.078,south-southwest,2.5,Yes
2024/06/18,03:20,0.152,0.133,0.221,0.205,0.211,0.120,0.078,south-southwest,2.4,Yes
2024/06/18,03:30,0.150,0.135,0.220,0.204,0.207,0.119,0.078,southwest,2.2,Yes
2024/06/18,03:40,0.152,0.134,0.222,0.204,0.212,0.120,0.079,west-southwest,2.3,Yes
2024/06/18,03:50,0.152,0.136,0.221,0.206,0.209,0.120,0.079,southwest,2.5,Yes
2024/06/18,04:00,0.151,0.134,0.219,0.204,0.209,0.120,0.079,southwest,3.4,Yes
2024/06/18,04:10,0.152,0.135,0.220,0.206,0.211,0.119,0.079,southwest,5.3,Yes
2024/06/18,04:20,0.151,0.134,0.219,0.204,0.208,0.120,0.078,southwest,4.8,Yes
2024/06/18,04:30,0.151,0.134,0.220,0.205,0.210,0.119,0.079,southwest,4.0,Yes
2024/06/18,04:40,0.151,0.135,0.218,0.203,0.208,0.119,0.078,south-southwest,4.2,Yes
2024/06/18,04:50,0.151,0.134,0.220,0.203,0.210,0.119,0.079,south,4.3,Yes
2024/06/18,05:00,0.150,0.136,0.218,0.204,0.210,0.120,0.077,south,4.1,Yes
2024/06/18,05:10,0.150,0.134,0.220,0.202,0.207,0.120,0.078,south,5.5,Yes
2024/06/18,05:20,0.152,0.134,0.219,0.205,0.210,0.119,0.077,south,4.8,Yes
2024/06/18,05:30,0.151,0.134,0.217,0.202,0.208,0.120,0.079,south-southwest,3.7,Yes
2024/06/18,05:40,0.150,0.134,0.219,0.203,0.209,0.120,0.078,south-southeast,3.6,Yes
2024/06/18,05:50,0.152,0.135,0.218,0.204,0.210,0.121,0.078,south,4.8,Yes
2024/06/18,06:00,0.151,0.135,0.220,0.203,0.208,0.121,0.079,south,4.7,Yes
2024/06/18,06:10,0.152,0.135,0.217,0.204,0.209,0.121,0.079,south,3.3,Yes
2024/06/18,06:20,0.151,0.134,0.220,0.202,0.208,0.121,0.079,south,3.2,Yes
2024/06/18,06:30,0.152,0.136,0.218,0.205,0.208,0.120,0.079,south,4.5,Yes
2024/06/18,06:40,0.152,0.134,0.218,0.202,0.207,0.120,0.081,south-southwest,3.8,Yes
2024/06/18,06:50,0.150,0.134,0.217,0.203,0.207,0.119,0.079,southwest,2.3,Yes
2024/06/18,07:00,0.151,0.135,0.216,0.201,0.207,0.119,0.079,southwest,2.5,Yes
2024/06/18,07:10,0.150,0.133,0.216,0.201,0.206,0.119,0.079,southwest,3.2,Yes
2024/06/18,07:20,0.150,0.134,0.215,0.203,0.208,0.119,0.077,southwest,2.8,Yes
2024/06/18,07:30,0.150,0.132,0.216,0.201,0.206,0.119,0.078,south-southwest,2.6,Yes
2024/06/18,07:40,0.149,0.134,0.213,0.201,0.206,0.119,0.078,south,2.4,Yes
2024/06/18,07:50,0.151,0.132,0.216,0.200,0.206,0.118,0.078,south-southwest,2.1,Yes
2024/06/18,08:00,0.149,0.133,0.215,0.199,0.205,0.119,0.078,south-southwest,2.1,Yes
2024/06/18,08:10,0.149,0.133,0.214,0.200,0.208,0.118,0.078,south,2.0,Yes
2024/06/18,08:20,0.150,0.133,0.215,0.199,0.206,0.118,0.078,south,1.6,Yes
2024/06/18,08:30,0.149,0.133,0.213,0.201,0.206,0.119,0.079,-,CALM,Yes
2024/06/18,08:40,0.151,0.132,0.215,0.200,0.208,0.118,0.079,-,CALM,Yes
2024/06/18,08:50,0.150,0.134,0.213,0.199,0.205,0.120,0.078,-,CALM,Yes
2024/06/18,09:00,0.150,0.133,0.214,0.200,0.208,0.119,0.079,southwest,2.9,Yes
2024/06/18,09:10,0.149,0.133,0.213,0.199,0.206,0.118,0.079,south,1.2,Yes
2024/06/18,09:20,0.147,0.132,0.214,0.202,0.207,0.120,0.078,east-northeast,5.6,Yes
2024/06/18,09:30,0.150,0.132,0.214,0.197,0.206,0.119,0.079,-,CALM,Yes
2024/06/18,09:40,0.149,0.133,0.211,0.198,0.205,0.119,0.078,-,CALM,Yes
2024/06/18,09:50,0.148,0.131,0.214,0.199,0.206,0.118,0.078,west-southwest,6.5,Yes
2024/06/18,10:00,0.148,0.131,0.212,0.198,0.204,0.118,0.078,northeast,12.6,Yes
2024/06/18,10:10,0.146,0.131,0.212,0.199,0.206,0.118,0.078,east-northeast,8.2,Yes
2024/06/18,10:20,0.148,0.131,0.211,0.195,0.205,0.117,0.078,north,7.2,Yes
2024/06/18,10:30,0.146,0.130,0.211,0.198,0.204,0.118,0.078,northeast,6.4,Yes
2024/06/18,10:40,0.147,0.132,0.210,0.197,0.206,0.118,0.077,north-northeast,1.2,Yes
2024/06/18,10:50,0.148,0.131,0.211,0.196,0.203,0.116,0.078,south-southeast,1.5,Yes
2024/06/18,11:00,0.147,0.130,0.211,0.197,0.205,0.117,0.077,south-southeast,1.4,Yes
2024/06/18,11:10,0.148,0.130,0.210,0.195,0.204,0.116,0.077,east-northeast,0.7,Yes
2024/06/18,11:20,0.146,0.129,0.211,0.196,0.202,0.116,0.077,north,2.2,Yes
2024/06/18,11:30,0.147,0.130,0.208,0.195,0.205,0.116,0.077,south,7.9,Yes
2024/06/18,11:40,0.147,0.129,0.211,0.195,0.203,0.115,0.077,east-northeast,11.5,Yes
2024/06/18,11:50,0.146,0.130,0.208,0.195,0.204,0.117,0.077,east,4.9,Yes
2024/06/18,12:00,0.148,0.130,0.210,0.195,0.203,0.116,0.077,southeast,2.7,Yes
2024/06/18,12:10,0.146,0.130,0.210,0.196,0.205,0.117,0.078,east-southeast,1.7,Yes
2024/06/18,12:20,0.148,0.130,0.210,0.194,0.204,0.116,0.077,south-southeast,2.4,Yes
2024/06/18,12:30,0.146,0.130,0.210,0.195,0.203,0.116,0.077,south-southwest,3.9,Yes
2024/06/18,12:40,0.146,0.130,0.210,0.194,0.205,0.116,0.077,southeast,2.2,Yes
2024/06/18,12:50,0.146,0.130,0.209,0.195,0.201,0.116,0.078,south-southeast,2.0,Yes
2024/06/18,13:00,0.146,0.129,0.209,0.195,0.205,0.116,0.076,east,4.2,Yes
2024/06/18,13:10,0.146,0.128,0.209,0.195,0.201,0.115,0.076,southeast,3.6,Yes
2024/06/18,13:20,0.145,0.130,0.208,0.195,0.204,0.115,0.078,south-southeast,3.0,Yes
2024/06/18,13:30,0.147,0.129,0.210,0.195,0.203,0.115,0.077,south,2.8,Yes
2024/06/18,13:40,0.146,0.130,0.209,0.195,0.203,0.116,0.077,south,2.5,Yes
2024/06/18,13:50,0.146,0.129,0.209,0.194,0.205,0.115,0.077,southeast,1.2,Yes
2024/06/18,14:00,0.146,0.130,0.209,0.195,0.202,0.115,0.077,southeast,3.0,Yes
2024/06/18,14:10,0.146,0.129,0.209,0.192,0.204,0.116,0.077,southeast,2.5,Yes
2024/06/18,14:20,0.147,0.129,0.208,0.195,0.202,0.115,0.077,-,CALM,Yes
2024/06/18,14:30,0.146,0.130,0.210,0.194,0.204,0.115,0.077,east,2.7,Yes
2024/06/18,14:40,0.146,0.130,0.207,0.194,0.203,0.115,0.077,south,1.8,Yes
2024/06/18,14:50,0.146,0.129,0.209,0.196,0.203,0.115,0.077,south-southwest,1.6,Yes
2024/06/18,15:00,0.147,0.129,0.207,0.195,0.204,0.115,0.077,west-southwest,2.0,Yes
2024/06/18,15:10,0.147,0.129,0.208,0.196,0.202,0.115,0.077,west-northwest,1.3,Yes
2024/06/18,15:20,0.145,0.129,0.209,0.193,0.204,0.114,0.076,northwest,1.5,Yes
2024/06/18,15:30,0.146,0.130,0.207,0.195,0.204,0.113,0.077,-,CALM,Yes
2024/06/18,15:40,0.144,0.128,0.209,0.194,0.203,0.113,0.075,-,CALM,No
2024/06/18,15:50,0.144,0.129,0.205,0.193,0.203,0.114,0.075,south-southeast,0.6,No
2024/06/18,16:00,0.145,0.127,0.207,0.194,0.201,0.113,0.075,-,CALM,Yes
2024/06/18,16:10,0.143,0.125,0.205,0.192,0.204,0.112,0.075,-,CALM,No
2024/06/18,16:20,0.144,0.127,0.205,0.193,0.201,0.112,0.074,-,CALM,No
2024/06/18,16:30,0.142,0.126,0.206,0.191,0.200,0.113,0.074,northwest,0.8,No
2024/06/18,16:40,0.144,0.126,0.205,0.192,0.203,0.113,0.074,southwest,0.9,No
2024/06/18,16:50,0.144,0.126,0.206,0.192,0.201,0.112,0.073,southeast,0.8,No
2024/06/18,17:00,0.142,0.126,0.204,0.190,0.202,0.112,0.073,-,CALM,No
2024/06/18,17:10,0.143,0.126,0.204,0.191,0.201,0.112,0.073,north,0.9,No
2024/06/18,17:20,0.142,0.125,0.205,0.192,0.200,0.111,0.073,north,0.6,No
2024/06/18,17:30,0.142,0.127,0.204,0.190,0.203,0.112,0.073,north-northeast,0.7,No
2024/06/18,17:40,0.143,0.126,0.205,0.192,0.201,0.112,0.073,north,0.8,No
2024/06/18,17:50,0.142,0.126,0.204,0.191,0.200,0.112,0.073,north,1.3,No
2024/06/18,18:00,0.142,0.127,0.205,0.192,0.203,0.111,0.072,-,CALM,No
2024/06/18,18:10,0.143,0.126,0.204,0.191,0.200,0.111,0.073,north-northwest,0.7,No
2024/06/18,18:20,0.141,0.126,0.205,0.191,0.202,0.111,0.073,-,CALM,No
2024/06/18,18:30,0.143,0.126,0.205,0.193,0.202,0.111,0.073,-,CALM,No
2024/06/18,18:40,0.142,0.127,0.204,0.190,0.200,0.112,0.073,-,CALM,No
2024/06/18,18:50,0.143,0.126,0.205,0.192,0.203,0.112,0.073,-,CALM,No
2024/06/18,19:00,0.144,0.126,0.204,0.191,0.200,0.111,0.073,north-northwest,0.6,No
2024/06/18,19:10,0.141,0.126,0.207,0.191,0.203,0.112,0.073,-,CALM,No
2024/06/18,19:20,0.143,0.126,0.205,0.191,0.201,0.112,0.073,west,0.6,No
2024/06/18,19:30,0.142,0.127,0.205,0.191,0.202,0.112,0.073,-,CALM,No
2024/06/18,19:40,0.143,0.125,0.205,0.192,0.203,0.113,0.073,south,1.4,No
2024/06/18,19:50,0.143,0.126,0.206,0.190,0.201,0.112,0.073,south,0.8,No
2024/06/18,20:00,0.144,0.126,0.206,0.193,0.203,0.112,0.073,south,0.9,No
2024/06/18,20:10,0.143,0.126,0.206,0.192,0.201,0.112,0.073,-,CALM,No
2024/06/18,20:20,0.143,0.126,0.206,0.191,0.203,0.113,0.073,-,CALM,No
2024/06/18,20:30,0.143,0.127,0.205,0.191,0.202,0.112,0.073,southwest,0.6,No
2024/06/18,20:40,0.142,0.126,0.206,0.192,0.202,0.111,0.073,-,CALM,No
2024/06/18,20:50,0.144,0.126,0.205,0.192,0.201,0.112,0.073,-,CALM,No
2024/06/18,21:00,0.143,0.126,0.207,0.192,0.202,0.111,0.073,-,CALM,No
2024/06/18,21:10,0.143,0.127,0.206,0.193,0.203,0.113,0.074,-,CALM,No
2024/06/18,21:20,0.141,0.126,0.205,0.191,0.201,0.112,0.074,north-northwest,0.6,No
2024/06/18,21:30,0.143,0.128,0.204,0.193,0.204,0.112,0.074,north-northwest,1.0,No
2024/06/18,21:40,0.143,0.126,0.207,0.191,0.201,0.113,0.074,northwest,0.9,No
2024/06/18,21:50,0.144,0.127,0.206,0.193,0.203,0.112,0.074,north-northwest,0.9,No
2024/06/18,22:00,0.142,0.126,0.207,0.191,0.202,0.111,0.073,north-northwest,0.6,No
2024/06/18,22:10,0.142,0.127,0.205,0.193,0.202,0.114,0.072,north-northwest,0.7,No
2024/06/18,22:20,0.143,0.127,0.207,0.191,0.202,0.113,0.074,north-northwest,1.3,No
2024/06/18,22:30,0.143,0.127,0.205,0.193,0.203,0.113,0.074,north-northwest,1.3,No
2024/06/18,22:40,0.144,0.127,0.206,0.191,0.201,0.113,0.074,-,CALM,No
2024/06/18,22:50,0.142,0.128,0.208,0.193,0.202,0.112,0.074,west,0.6,No
2024/06/18,23:00,0.144,0.126,0.207,0.192,0.203,0.113,0.074,-,CALM,No
2024/06/18,23:10,0.142,0.127,0.205,0.192,0.203,0.113,0.073,west-northwest,1.2,No
2024/06/18,23:20,0.145,0.125,0.206,0.192,0.202,0.113,0.073,northwest,1.9,No
2024/06/18,23:30,0.143,0.127,0.206,0.193,0.202,0.113,0.073,northwest,2.1,No
2024/06/18,23:40,0.144,0.127,0.206,0.192,0.203,0.113,0.074,northwest,2.1,No
2024/06/18,23:50,0.142,0.127,0.206,0.193,0.202,0.112,0.073,northwest,2.7,No
